SCP
0 0 0 0 0 0 0 0 0 0 0 0 0 0 0 0 0 0 1 1 1 1 1 1 1 1 1 1 1 1 1 1 1 1 1 1 1 1 1 1 1 1 1 1
0 0 0 0 0 0 0 0 0 0 0 0 0 0 0 0 0 0 1 1 1 1 1 1 1 1 1 1 1 1 1 1 1 1 1 1 1 1 1 1 1 1 1 0
0 0 0 0 0 0 0 0 0 0 0 0 0 0 0 0 0 1 1 1 1 1 1 1 1 1 1 1 1 1 1 1 1 1 1 1 1 1 1 1 1 1 1 0
0 0 0 0 0 0 0 0 0 0 0 0 0 0 0 0 1 1 1 1 1 1 1 1 1 1 1 1 1 1 1 1 1 1 1 1 1 1 1 1 1 1 1 1
0 0 0 0 0 0 0 0 0 0 0 0 0 0 0 0 1 1 1 1 1 1 1 1 1 1 1 1 1 1 1 1 1 1 1 1 1 1 1 1 1 1 1 1
0 0 0 0 0 0 0 0 0 0 0 0 0 0 0 1 1 1 1 1 1 1 1 1 1 1 1 1 1 1 1 1 1 1 1 1 1 1 1 1 1 1 1 1
0 0 0 0 0 0 0 1 0 0 0 0 0 0 0 1 1 1 1 1 1 1 1 1 1 1 1 1 1 1 1 1 1 1 1 1 2 2 2 1 1 1 1 1
0 0 0 0 0 0 1 1 1 0 0 0 0 0 1 1 1 1 1 1 1 1 1 2 2 2 2 1 1 1 1 1 1 2 1 1 1 2 1 1 1 1 1 1
0 0 0 0 0 0 0 1 1 0 0 0 0 0 1 1 1 1 1 1 1 1 1 2 2 2 2 2 2 1 1 2 2 2 1 1 1 1 1 1 1 1 1 1
1 1 0 0 0 0 0 0 0 0 0 0 0 0 1 1 1 1 1 1 1 1 1 1 2 2 2 2 2 2 2 2 2 2 2 1 1 1 1 1 1 1 1 1
0 0 0 0 0 0 0 0 0 0 0 0 0 0 0 1 1 1 1 1 1 1 1 1 1 1 1 2 2 2 2 2 2 2 1 1 1 1 1 1 1 1 1 1
0 0 0 0 0 0 0 0 0 0 0 0 0 0 0 0 0 0 1 1 1 1 1 1 1 1 1 1 2 1 1 1 1 1 1 1 1 1 1 0 0 0 0 0
0 0 0 0 0 0 0 0 0 0 0 0 0 0 0 0 0 0 0 1 1 1 1 1 1 1 1 1 1 1 1 1 1 1 1 1 1 1 0 0 0 0 0 0
0 0 0 0 0 0 0 0 0 0 0 0 0 0 0 0 0 0 0 0 0 1 1 1 1 1 1 1 1 1 1 1 1 1 1 1 1 1 0 0 0 0 0 0
0 0 0 0 0 0 0 0 0 0 0 0 0 0 0 0 0 0 0 0 0 0 0 0 0 1 1 1 1 1 1 1 1 1 1 1 1 1 0 0 0 0 0 0
0 0 0 0 0 0 0 0 0 0 0 0 0 0 0 0 0 0 0 0 0 0 0 0 0 0 0 1 1 1 1 0 0 1 1 1 1 1 0 0 0 0 0 0
0 0 0 0 0 0 0 0 0 0 0 0 0 0 0 0 0 0 0 0 0 0 0 0 0 0 0 0 0 0 0 0 0 0 1 1 1 0 0 0 0 0 0 0
0 0 0 0 0 0 0 0 0 0 0 0 0 0 0 0 0 0 0 0 0 0 0 0 0 0 0 0 0 0 0 0 0 0 0 0 0 0 0 0 0 0 0 0
0 0 0 0 0 0 0 0 0 0 0 0 0 0 0 0 0 0 0 0 0 0 0 0 0 0 0 0 0 0 0 0 0 0 0 0 0 0 0 0 0 0 0 0
0 0 0 0 0 0 0 0 0 0 0 0 0 0 0 0 0 0 0 0 0 0 0 0 0 0 0 0 0 0 0 0 0 0 0 0 0 0 0 0 0 0 0 0
0 0 0 0 0 0 0 0 0 0 0 0 0 0 0 0 0 0 0 0 0 0 0 0 0 0 0 0 0 0 0 0 0 0 0 0 0 0 0 0 0 0 0 0
0 0 0 0 0 0 0 0 0 0 0 0 0 0 0 0 0 0 0 0 0 0 0 0 0 0 0 0 0 0 0 0 0 0 0 0 0 0 0 0 0 0 0 0
0 0 0 0 0 0 0 0 0 0 0 0 0 0 0 0 0 0 0 0 0 0 0 0 0 0 0 0 0 0 0 0 0 0 0 0 0 0 0 0 0 0 0 0
0 0 0 0 0 0 0 0 0 0 0 0 0 0 0 0 0 0 0 0 0 0 0 0 0 0 0 0 0 0 0 0 0 0 0 0 0 0 0 0 0 0 0 0
0 0 0 0 0 0 0 0 0 0 0 0 0 0 0 0 0 0 0 0 0 0 0 0 0 -0 -0 0 0 0 0 0 0 0 0 0 0 0 0 0 0 0 0 0
0 0 0 0 0 0 0 0 0 0 0 0 0 0 0 0 0 0 0 0 0 0 0 0 0 -0 -0 0 0 0 0 0 0 0 0 0 0 0 0 0 0 0 0 0
0 0 0 0 0 0 0 0 0 0 0 0 0 0 0 0 0 0 0 0 0 0 0 0 -0 -0 0 0 0 0 0 0 0 0 0 0 0 0 0 0 0 0 0 0
Wind_Speed
7 6 7 8 11 12 12 12 10 7 5 5 5 3 1 2 4 7 8 9 9 8 8 9 11 11 12 13 12 12 12 12 12 11 10 10 9 9 9 9 10 8 8 7
8 8 7 8 10 12 14 14 10 5 2 3 4 4 2 2 3 5 6 8 9 9 8 8 9 10 10 11 12 11 12 12 11 11 11 10 10 10 10 10 9 9 8 8
7 7 6 8 10 13 12 9 5 3 2 3 3 2 1 2 2 3 4 6 8 8 8 7 7 7 8 9 10 11 11 11 11 11 12 11 12 11 10 10 9 8 8 8
7 7 10 6 7 9 7 4 1 3 5 4 3 3 2 2 3 3 2 4 6 7 7 8 8 8 7 9 10 11 11 11 11 11 11 11 10 10 10 9 8 8 8 8
6 7 6 3 2 1 1 3 5 6 5 4 3 4 3 4 3 3 2 1 3 5 7 6 7 8 8 9 10 11 12 11 11 12 11 11 11 10 9 8 8 8 8 8
6 5 4 1 5 5 1 4 5 6 5 4 3 1 2 4 5 5 4 2 2 4 5 6 5 5 7 8 8 9 10 10 10 11 11 11 10 9 8 7 8 8 8 8
7 5 1 3 3 4 2 3 5 6 6 5 5 3 2 3 5 5 4 3 2 2 3 4 5 5 6 7 7 8 8 8 8 9 9 9 8 8 8 8 8 8 7 7
6 5 2 3 1 4 6 6 6 6 6 5 4 3 3 4 4 4 3 2 1 2 2 3 4 5 5 5 5 6 7 7 7 8 8 9 8 8 8 8 8 7 6 7
2 4 7 8 9 6 6 6 6 6 5 4 3 3 4 5 5 4 4 3 2 2 2 2 2 4 4 4 4 5 5 6 6 8 7 6 8 9 8 7 8 8 8 8
6 8 9 9 8 6 6 5 6 5 5 4 4 4 4 5 5 5 5 4 3 2 2 2 2 2 3 3 4 5 5 5 5 6 6 5 6 7 7 8 8 8 8 7
6 7 9 8 7 6 6 6 6 6 6 6 5 4 4 5 5 4 4 4 3 3 3 3 2 2 1 2 3 4 5 5 5 5 6 5 4 2 4 4 5 5 5 5
4 5 6 6 5 5 5 6 6 6 6 6 6 6 6 5 5 4 4 3 3 3 2 2 2 1 1 2 3 4 4 4 5 5 5 5 5 4 3 3 4 4 4 3
6 7 8 6 5 6 5 5 6 6 6 7 7 6 6 5 5 5 5 5 4 3 3 3 2 2 1 1 2 3 4 4 4 4 4 5 5 5 5 3 5 5 4 6
8 7 7 6 6 6 5 6 7 8 8 8 7 7 7 6 6 6 6 5 5 4 4 4 4 3 2 2 1 2 3 3 3 3 4 4 5 5 5 5 5 3 2 4
7 6 6 6 6 5 6 7 7 8 8 8 8 7 8 8 7 7 6 6 6 7 7 6 6 6 5 4 3 2 1 1 2 2 3 4 4 5 4 5 4 4 4 4
6 6 6 6 7 7 8 8 8 8 8 8 8 8 8 8 8 8 8 8 9 9 8 8 7 7 6 5 3 2 2 3 3 2 2 3 3 3 3 4 4 4 4 4
5 5 5 6 7 7 8 8 8 7 8 8 8 8 8 9 9 9 9 9 9 9 9 9 8 7 7 7 5 3 3 4 4 4 4 3 3 4 3 3 3 3 3 4
5 5 6 7 7 7 8 8 8 8 7 8 8 9 9 8 8 7 8 8 9 10 11 10 9 9 9 8 6 5 5 5 5 4 4 5 4 4 4 4 3 4 3 3
7 8 9 9 8 8 8 8 8 8 8 8 9 9 8 8 7 7 8 9 10 10 9 10 11 10 9 10 8 5 6 6 6 6 5 6 5 4 4 4 4 4 4 3
9 10 10 9 9 8 8 8 8 8 8 8 8 8 9 9 8 8 9 10 8 7 7 8 8 8 8 9 8 6 7 7 7 6 6 5 5 5 5 5 5 5 5 4
10 10 10 10 9 9 9 9 8 8 8 8 8 8 8 8 7 7 7 8 7 7 7 8 7 7 7 6 6 6 7 7 7 7 6 6 6 6 5 5 5 5 5 5
9 10 10 10 9 9 8 8 8 9 8 8 8 7 7 7 8 8 8 6 6 7 6 7 7 8 9 6 6 6 7 7 7 6 6 6 6 6 6 6 6 6 5 5
9 9 9 9 8 8 8 8 8 8 8 7 7 7 7 6 6 6 7 6 6 7 7 7 8 11 10 6 7 7 8 8 8 7 7 6 7 6 6 7 6 6 6 6
9 9 8 8 8 8 8 8 7 6 7 6 7 7 6 6 6 7 7 7 7 7 7 7 9 10 7 6 7 8 8 8 7 7 7 7 7 7 7 7 7 6 6 7
9 9 8 7 7 6 6 6 6 6 7 6 7 8 7 7 6 6 6 7 6 6 6 6 7 8 7 8 8 8 8 8 8 7 7 7 7 7 7 6 6 6 6 6
8 7 6 6 5 4 5 5 5 6 6 6 6 6 6 5 6 5 5 7 8 6 6 5 6 6 7 8 8 8 7 7 7 7 8 7 8 7 7 7 8 7 6 6
8 6 5 5 5 5 5 6 6 7 7 6 6 6 6 6 6 6 6 6 6 6 5 5 6 6 7 7 7 7 7 7 7 7 7 7 7 7 7 8 6 6 6 7
Wind_Direction
238 242 235 237 243 244 244 248 247 237 198 196 192 149 141 116 130 134 141 149 152 156 162 169 170 171 175 177 177 176 178 183 182 182 181 184 184 183 182 183 187 182 182 185
242 238 236 241 247 250 251 247 238 216 200 181 143 120 153 131 119 131 149 158 159 162 165 173 176 176 177 177 176 175 181 185 179 182 181 184 186 187 185 187 187 180 185 189
244 244 251 240 238 238 239 242 238 223 136 105 94 75 54 61 98 128 153 157 162 168 170 176 182 177 177 177 173 175 182 185 180 183 184 186 190 187 186 186 186 183 186 192
247 239 235 230 221 227 227 232 177 104 99 108 115 101 60 49 71 82 119 157 162 168 173 177 177 179 183 181 179 181 184 187 183 184 187 187 189 184 182 181 184 186 189 193
238 237 238 252 272 275 192 98 66 78 77 71 79 89 65 32 48 68 67 109 151 165 169 169 176 182 186 187 186 188 189 190 188 187 187 185 188 184 180 179 183 187 188 192
229 238 236 28 5 340 128 117 64 70 64 48 44 86 41 31 41 52 46 40 125 154 156 159 168 174 183 188 187 193 194 193 191 187 187 186 184 181 179 177 183 188 192 194
231 231 157 54 341 311 214 105 61 67 60 47 41 51 16 26 48 47 42 25 71 123 138 149 160 166 181 187 191 190 190 189 183 179 181 180 175 174 172 179 186 194 194 194
224 218 167 47 60 57 75 73 64 61 56 53 36 17 24 34 43 35 23 30 66 104 114 132 154 163 176 184 187 177 180 183 179 171 182 185 175 177 179 183 186 192 197 200
78 94 88 76 79 77 71 66 62 50 32 33 19 13 28 33 31 26 21 26 31 70 93 113 134 157 176 176 169 168 166 169 167 167 177 174 174 181 183 187 198 201 201 206
98 106 98 87 85 78 72 61 58 45 36 42 41 28 29 42 38 29 22 25 30 52 64 72 106 139 159 158 160 162 168 166 167 171 178 175 176 183 189 194 204 207 203 202
112 111 99 81 75 74 74 61 49 41 36 39 45 39 44 58 51 36 26 22 37 48 51 44 45 84 132 152 157 166 167 165 168 178 179 176 168 160 197 189 203 206 207 202
108 104 100 91 63 46 61 60 56 46 37 44 47 44 48 51 45 33 26 19 34 43 44 47 39 70 113 137 150 163 172 172 177 177 169 167 165 154 84 101 130 141 137 143
85 92 92 90 66 47 56 65 64 59 51 50 48 51 53 50 44 37 30 24 29 38 40 41 41 44 54 115 151 164 171 173 176 176 172 172 175 171 163 116 73 85 114 122
73 81 82 74 65 48 54 68 67 64 57 53 51 50 49 51 49 41 35 29 32 42 46 47 46 41 36 59 107 163 177 171 169 169 169 176 180 180 175 166 156 144 115 129
70 77 87 82 78 64 57 64 67 67 65 57 53 53 51 48 45 43 38 36 43 47 45 44 41 33 31 40 62 71 116 141 160 157 161 166 164 165 163 159 152 148 140 123
80 82 84 83 78 73 68 64 63 62 63 62 58 57 59 56 49 44 43 42 47 44 42 43 39 32 32 36 48 71 79 80 89 111 121 116 110 114 126 131 132 136 139 139
89 84 84 87 78 72 70 70 67 66 67 66 63 64 61 61 57 51 50 51 53 49 41 40 37 34 35 36 42 60 76 83 85 84 82 82 85 92 95 99 107 115 123 137
82 89 92 97 95 86 78 74 72 67 68 73 74 70 65 60 56 54 56 57 56 51 43 39 35 35 38 33 33 47 58 61 70 71 68 65 68 77 81 82 87 94 96 120
89 89 89 87 87 87 84 80 77 71 68 72 73 70 69 66 60 58 58 55 51 47 37 33 37 38 38 32 29 44 53 59 64 67 65 65 66 66 69 71 71 71 75 76
91 91 93 94 91 89 85 81 78 77 75 75 75 73 68 61 59 63 66 60 50 41 35 36 40 40 37 30 30 45 52 54 56 59 59 59 60 59 58 59 62 64 66 66
95 97 95 91 85 81 81 82 84 83 81 79 77 76 74 69 63 61 69 69 50 33 41 45 40 35 30 22 39 53 55 56 59 59 56 54 54 54 53 51 53 53 54 51
98 99 96 92 88 85 80 82 86 88 87 85 83 83 81 76 74 70 64 63 59 40 48 50 41 26 8 18 54 59 61 59 60 60 60 59 56 53 47 45 46 46 43 39
98 97 95 93 92 91 89 87 85 84 83 80 75 74 75 70 68 72 69 54 57 51 54 48 24 18 11 45 56 57 57 56 53 53 52 53 55 53 48 45 43 42 40 36
96 96 93 92 92 89 85 81 79 82 85 83 77 75 78 78 75 75 81 71 55 59 63 41 21 13 19 61 59 56 55 54 51 48 47 49 51 51 49 46 41 37 38 37
91 90 85 85 85 87 93 94 91 86 83 74 67 63 67 68 70 71 74 77 74 68 76 59 28 11 42 57 58 57 54 49 46 47 47 45 47 50 48 45 42 37 34 34
85 85 79 72 68 68 79 79 78 71 69 68 63 60 62 66 73 75 73 73 70 62 63 63 57 50 53 57 57 55 53 52 49 47 47 46 43 44 43 40 37 35 30 29
91 87 77 73 67 61 63 67 70 69 64 60 59 60 61 60 61 62 62 64 63 60 59 58 59 58 57 57 58 54 50 46 44 43 43 42 38 35 34 34 34 35 30 27